�������l�o���
Date,Time,MP-1(��Sv/h),MP-2(��Sv/h),MP-3(��Sv/h),MP-4(��Sv/h),MP-5(��Sv/h),MP-6(��Sv/h),MP-7(��Sv/h),����,����(m/s),���J
2018/08/03,00:00,0.332,0.208,0.339,0.327,0.298,0.166,0.101,�k,2.8,��
2018/08/03,00:10,0.333,0.208,0.336,0.325,0.295,0.165,0.101,�k,4.6,��
2018/08/03,00:20,0.328,0.207,0.337,0.323,0.292,0.164,0.101,�k,5.3,��
2018/08/03,00:30,0.331,0.208,0.340,0.326,0.294,0.166,0.103,�k,5.1,��
2018/08/03,00:40,0.333,0.208,0.336,0.327,0.297,0.164,0.101,�k,6.3,��
2018/08/03,00:50,0.330,0.207,0.338,0.323,0.291,0.164,0.101,�k,6.3,��
2018/08/03,01:00,0.330,0.209,0.339,0.324,0.292,0.164,0.102,�k�k��,1.5,��
2018/08/03,01:10,0.333,0.208,0.337,0.326,0.295,0.164,0.102,�k,1.5,��
2018/08/03,01:20,0.331,0.205,0.335,0.324,0.293,0.164,0.101,�k,4.7,��
2018/08/03,01:30,0.327,0.209,0.339,0.322,0.291,0.165,0.101,�k,5.2,��
2018/08/03,01:40,0.332,0.207,0.336,0.327,0.296,0.164,0.102,�k,5.5,��
2018/08/03,01:50,0.332,0.206,0.335,0.325,0.294,0.164,0.101,�k,6.9,��
2018/08/03,02:00,0.328,0.208,0.339,0.323,0.290,0.165,0.102,�k,5.8,��
2018/08/03,02:10,0.329,0.207,0.339,0.325,0.295,0.164,0.101,�k,6.4,��
2018/08/03,02:20,0.332,0.205,0.335,0.325,0.295,0.163,0.101,�k,6.8,��
2018/08/03,02:30,0.330,0.208,0.339,0.322,0.291,0.164,0.100,�k,6.3,��
2018/08/03,02:40,0.326,0.207,0.340,0.326,0.294,0.165,0.101,�k,6.7,��
2018/08/03,02:50,0.332,0.206,0.337,0.324,0.295,0.162,0.101,�k,6.5,��
2018/08/03,03:00,0.330,0.208,0.335,0.321,0.291,0.164,0.101,�k,6.7,��
2018/08/03,03:10,0.327,0.207,0.338,0.324,0.292,0.164,0.101,�k,6.4,��
2018/08/03,03:20,0.331,0.205,0.336,0.324,0.295,0.163,0.102,�k,7.0,��
2018/08/03,03:30,0.331,0.207,0.337,0.321,0.292,0.163,0.100,�k,6.3,��
2018/08/03,03:40,0.330,0.207,0.340,0.323,0.292,0.163,0.102,�k,5.2,��
2018/08/03,03:50,0.329,0.205,0.336,0.325,0.295,0.162,0.100,�k,5.0,��
2018/08/03,04:00,0.332,0.206,0.334,0.321,0.293,0.163,0.100,�k,5.5,��
2018/08/03,04:10,0.330,0.206,0.337,0.323,0.289,0.163,0.101,�k,5.6,��
2018/08/03,04:20,0.328,0.205,0.336,0.324,0.294,0.162,0.101,�k,5.8,��
2018/08/03,04:30,0.333,0.207,0.337,0.322,0.293,0.164,0.100,�k,6.6,��
2018/08/03,04:40,0.330,0.206,0.339,0.322,0.290,0.163,0.101,�k,7.2,��
2018/08/03,04:50,0.327,0.205,0.336,0.325,0.292,0.162,0.100,�k,6.6,��
2018/08/03,05:00,0.331,0.207,0.336,0.323,0.293,0.163,0.100,�k,6.5,��
2018/08/03,05:10,0.331,0.207,0.338,0.323,0.290,0.164,0.100,�k,6.8,��
2018/08/03,05:20,0.329,0.206,0.337,0.323,0.292,0.162,0.101,�k,6.9,��
2018/08/03,05:30,0.328,0.206,0.338,0.322,0.293,0.163,0.100,�k,5.1,��
2018/08/03,05:40,0.332,0.205,0.338,0.323,0.290,0.162,0.100,�k,3.9,��
2018/08/03,05:50,0.330,0.204,0.334,0.324,0.289,0.163,0.100,�k,4.1,��
2018/08/03,06:00,0.327,0.206,0.337,0.322,0.295,0.163,0.101,�k,4.3,��
2018/08/03,06:10,0.332,0.207,0.339,0.320,0.293,0.163,0.100,�k,3.6,��
2018/08/03,06:20,0.331,0.205,0.336,0.326,0.292,0.162,0.100,�k,3.4,��
2018/08/03,06:30,0.328,0.205,0.335,0.324,0.291,0.162,0.100,�k,2.1,��
2018/08/03,06:40,0.327,0.204,0.339,0.320,0.290,0.163,0.100,�k,3.5,��
2018/08/03,06:50,0.332,0.204,0.337,0.319,0.294,0.163,0.100,�k,4.2,��
2018/08/03,07:00,0.330,0.207,0.334,0.325,0.293,0.162,0.100,�k,5.0,��
2018/08/03,07:10,0.328,0.207,0.333,0.323,0.292,0.164,0.100,�k,3.5,��
2018/08/03,07:20,0.326,0.207,0.333,0.322,0.290,0.163,0.101,�k,3.9,��
2018/08/03,07:30,0.325,0.206,0.333,0.322,0.289,0.163,0.100,�k�k��,5.4,��
2018/08/03,07:40,0.332,0.206,0.333,0.321,0.289,0.162,0.101,�k,5.7,��
2018/08/03,07:50,0.333,0.206,0.335,0.319,0.292,0.163,0.099,�k�k��,5.5,��
2018/08/03,08:00,0.330,0.205,0.334,0.320,0.295,0.162,0.100,�k�k��,4.3,��
2018/08/03,08:10,0.328,0.205,0.335,0.320,0.293,0.162,0.100,�k�k��,5.5,��
2018/08/03,08:20,0.328,0.205,0.334,0.322,0.291,0.163,0.099,�k�k��,7.7,��
2018/08/03,08:30,0.328,0.204,0.333,0.322,0.289,0.162,0.100,�k�k��,6.5,��
2018/08/03,08:40,0.327,0.205,0.333,0.322,0.291,0.162,0.099,�k��,4.8,��
2018/08/03,08:50,0.327,0.207,0.332,0.321,0.291,0.163,0.099,�k��,6.8,��
2018/08/03,09:00,0.327,0.205,0.338,0.321,0.290,0.162,0.099,�k�k��,6.3,��
2018/08/03,09:10,0.327,0.206,0.339,0.321,0.291,0.162,0.100,�k,6.5,��
2018/08/03,09:20,0.327,0.206,0.338,0.321,0.291,0.163,0.100,�k�k��,7.2,��
2018/08/03,09:30,0.328,0.206,0.335,0.324,0.291,0.163,0.100,�k�k��,6.1,��
2018/08/03,09:40,0.329,0.206,0.335,0.323,0.292,0.162,0.100,�k�k��,5.6,��
2018/08/03,09:50,0.329,0.205,0.334,0.323,0.291,0.164,0.099,�k��,5.3,��
2018/08/03,10:00,0.330,0.204,0.334,0.322,0.291,0.164,0.100,�k�k��,4.7,��
2018/08/03,10:10,0.329,0.205,0.333,0.322,0.293,0.162,0.100,�k�k��,5.1,��
2018/08/03,10:20,0.331,0.205,0.334,0.324,0.292,0.162,0.101,�k��,5.7,��
2018/08/03,10:30,0.328,0.204,0.335,0.324,0.291,0.163,0.100,�k�k��,5.0,��
2018/08/03,10:40,0.328,0.206,0.335,0.323,0.291,0.162,0.101,�k�k��,4.0,��
2018/08/03,10:50,0.328,0.206,0.337,0.324,0.291,0.162,0.100,�k��,5.3,��
2018/08/03,11:00,0.329,0.205,0.337,0.325,0.292,0.162,0.100,�k��,4.5,��
2018/08/03,11:10,0.328,0.206,0.337,0.324,0.291,0.163,0.100,�k��,4.0,��
2018/08/03,11:20,0.330,0.205,0.338,0.324,0.290,0.162,0.100,�k�k��,5.2,��
2018/08/03,11:30,0.329,0.206,0.339,0.325,0.291,0.163,0.100,���k��,1.8,��
2018/08/03,11:40,0.328,0.206,0.337,0.323,0.291,0.162,0.099,���k��,3.3,��
2018/08/03,11:50,0.329,0.206,0.337,0.324,0.291,0.163,0.100,���k��,2.2,��
2018/08/03,12:00,0.330,0.207,0.337,0.323,0.293,0.162,0.100,�k��,3.0,��
2018/08/03,12:10,0.330,0.206,0.337,0.323,0.292,0.162,0.100,�k��,2.2,��
2018/08/03,12:20,0.331,0.207,0.338,0.325,0.292,0.163,0.100,�k��,2.0,��
2018/08/03,12:30,0.331,0.207,0.339,0.324,0.293,0.164,0.101,���k��,2.3,��
2018/08/03,12:40,0.331,0.206,0.339,0.324,0.292,0.164,0.101,���k��,2.2,��
2018/08/03,12:50,0.331,0.207,0.337,0.325,0.294,0.164,0.101,�k��,3.1,��
2018/08/03,13:00,0.331,0.206,0.338,0.323,0.293,0.164,0.100,���k��,3.5,��
2018/08/03,13:10,0.330,0.206,0.337,0.323,0.292,0.163,0.100,���k��,2.4,��
2018/08/03,13:20,0.330,0.207,0.337,0.323,0.291,0.163,0.100,��,2.2,��
2018/08/03,13:30,0.329,0.207,0.337,0.323,0.292,0.163,0.100,��,2.0,��
2018/08/03,13:40,0.329,0.205,0.336,0.323,0.291,0.163,0.100,��,1.7,��
2018/08/03,13:50,0.332,0.205,0.337,0.322,0.291,0.163,0.100,���쓌,2.1,��
2018/08/03,14:00,0.331,0.206,0.337,0.323,0.292,0.163,0.100,�쓌,2.1,��
2018/08/03,14:10,0.332,0.207,0.337,0.323,0.293,0.163,0.100,�쓌,2.0,��
2018/08/03,14:20,0.332,0.207,0.337,0.323,0.292,0.164,0.099,���쓌,1.7,��
2018/08/03,14:30,0.332,0.207,0.336,0.323,0.293,0.164,0.100,�쓌,1.8,��
2018/08/03,14:40,0.333,0.206,0.337,0.323,0.293,0.163,0.100,�쓌,1.7,��
2018/08/03,14:50,0.333,0.206,0.337,0.323,0.292,0.162,0.100,���쓌,1.7,��
2018/08/03,15:00,0.333,0.205,0.336,0.322,0.291,0.163,0.100,�쓌,1.6,��
2018/08/03,15:10,0.332,0.206,0.336,0.321,0.292,0.163,0.100,��쓌,1.8,��
2018/08/03,15:20,0.331,0.204,0.336,0.321,0.291,0.163,0.100,�쓌,1.8,��
2018/08/03,15:30,0.331,0.206,0.335,0.321,0.292,0.163,0.100,���쓌,1.9,��
2018/08/03,15:40,0.330,0.205,0.333,0.321,0.292,0.163,0.100,���쓌,1.8,��
2018/08/03,15:50,0.329,0.204,0.336,0.323,0.291,0.163,0.100,���쓌,1.7,��
2018/08/03,16:00,0.329,0.204,0.336,0.320,0.290,0.163,0.099,�쓌,1.5,��
2018/08/03,16:10,0.329,0.205,0.335,0.323,0.292,0.163,0.099,�쓌,1.1,��
2018/08/03,16:20,0.328,0.206,0.335,0.320,0.292,0.161,0.099,��쓌,0.9,��
2018/08/03,16:30,0.329,0.205,0.335,0.321,0.291,0.163,0.099,�쓌,1.3,��
2018/08/03,16:40,0.329,0.204,0.335,0.319,0.290,0.162,0.098,�쓌,1.1,��
2018/08/03,16:50,0.329,0.206,0.334,0.320,0.291,0.163,0.099,-,CALM,��
2018/08/03,17:00,0.330,0.206,0.335,0.320,0.290,0.163,0.099,��쓌,1.5,��
2018/08/03,17:10,0.329,0.204,0.334,0.322,0.290,0.164,0.100,��쓌,1.8,��
2018/08/03,17:20,0.328,0.204,0.334,0.327,0.293,0.163,0.099,��쓌,1.6,��
2018/08/03,17:30,0.328,0.204,0.334,0.327,0.290,0.162,0.099,��쐼,1.7,��
2018/08/03,17:40,0.329,0.204,0.335,0.323,0.290,0.161,0.100,��쐼,1.3,��
2018/08/03,17:50,0.329,0.203,0.340,0.322,0.292,0.162,0.100,��쐼,1.1,��
2018/08/03,18:00,0.327,0.204,0.340,0.321,0.291,0.163,0.099,��쐼,1.0,��
2018/08/03,18:10,0.328,0.207,0.335,0.321,0.291,0.164,0.099,�쐼,1.6,��
2018/08/03,18:20,0.327,0.207,0.336,0.327,0.289,0.163,0.099,�쐼,1.6,��
2018/08/03,18:30,0.330,0.207,0.334,0.325,0.289,0.160,0.100,�쐼,2.3,��
2018/08/03,18:40,0.326,0.204,0.336,0.323,0.289,0.163,0.100,�쐼,1.8,��
2018/08/03,18:50,0.328,0.205,0.339,0.322,0.290,0.164,0.099,���쐼,1.5,��
2018/08/03,19:00,0.335,0.207,0.337,0.323,0.291,0.162,0.099,���쐼,2.2,��
2018/08/03,19:10,0.332,0.207,0.334,0.326,0.295,0.163,0.099,���쐼,1.7,��
2018/08/03,19:20,0.330,0.205,0.335,0.324,0.293,0.163,0.100,���쐼,1.1,��
2018/08/03,19:30,0.329,0.207,0.340,0.322,0.291,0.164,0.100,���k��,0.7,��
2018/08/03,19:40,0.334,0.207,0.338,0.326,0.290,0.163,0.100,-,CALM,��
2018/08/03,19:50,0.332,0.206,0.334,0.326,0.294,0.164,0.100,��,0.9,��
2018/08/03,20:00,0.330,0.205,0.337,0.323,0.294,0.164,0.100,-,CALM,��
2018/08/03,20:10,0.328,0.206,0.340,0.321,0.293,0.163,0.100,-,CALM,��
2018/08/03,20:20,0.333,0.206,0.337,0.326,0.290,0.164,0.099,��,0.8,��
2018/08/03,20:30,0.331,0.207,0.334,0.324,0.294,0.164,0.100,�쐼,1.6,��
2018/08/03,20:40,0.330,0.208,0.339,0.323,0.295,0.163,0.101,�쐼,1.5,��
2018/08/03,20:50,0.332,0.207,0.341,0.324,0.292,0.164,0.100,�쐼,2.1,��
2018/08/03,21:00,0.334,0.204,0.336,0.326,0.292,0.165,0.101,��쐼,1.5,��
2018/08/03,21:10,0.330,0.208,0.337,0.323,0.295,0.164,0.101,��쐼,2.7,��
2018/08/03,21:20,0.328,0.207,0.340,0.323,0.293,0.164,0.100,�쐼,3.0,��
2018/08/03,21:30,0.333,0.206,0.336,0.326,0.289,0.165,0.100,��쐼,1.6,��
2018/08/03,21:40,0.332,0.208,0.337,0.324,0.295,0.163,0.102,��쐼,1.6,��
2018/08/03,21:50,0.329,0.207,0.339,0.323,0.293,0.164,0.100,��쐼,1.7,��
2018/08/03,22:00,0.333,0.206,0.339,0.325,0.290,0.164,0.101,��쐼,2.0,��
2018/08/03,22:10,0.331,0.208,0.337,0.323,0.292,0.163,0.101,��쐼,1.4,��
2018/08/03,22:20,0.330,0.206,0.340,0.324,0.296,0.165,0.101,�쐼,1.0,��
2018/08/03,22:30,0.333,0.208,0.337,0.327,0.293,0.164,0.101,��쐼,2.1,��
2018/08/03,22:40,0.330,0.208,0.336,0.325,0.292,0.163,0.101,��쐼,1.9,��
2018/08/03,22:50,0.329,0.206,0.341,0.322,0.295,0.165,0.100,��쐼,2.1,��
2018/08/03,23:00,0.334,0.207,0.340,0.326,0.293,0.164,0.100,��쐼,2.0,��
2018/08/03,23:10,0.331,0.207,0.338,0.326,0.290,0.164,0.101,��쐼,2.0,��
2018/08/03,23:20,0.329,0.206,0.340,0.323,0.295,0.164,0.101,��쐼,2.0,��
2018/08/03,23:30,0.333,0.208,0.338,0.326,0.293,0.164,0.100,��쐼,1.7,��
2018/08/03,23:40,0.330,0.206,0.338,0.324,0.290,0.165,0.101,�쐼,1.9,��
2018/08/03,23:50,0.330,0.207,0.341,0.323,0.296,0.164,0.100,���k��,0.6,��
